Regional Weather Roundup
Issued by NWS

Home | Current Version | Previous Version | Text Only | Print | Product List | Glossary On
Versions: 1 2 3 4 5 6 7 8 9 10 11 12 13 14 15 16 17 18 19 20 21 22 23 24 25 26 27 28 29 30 31 32 33 34 35 36 37 38 39 40 41 42 43 44 45 46 47 48 49 50
000
ASUS44 KFWD 051110
RWRTX
NORTH TEXAS HOURLY WEATHER ROUNDUP
NATIONAL WEATHER SERVICE FORT WORTH TX
600 AM CDT THU MAY 05 2016

NOTE: "FAIR" INDICATES FEW OR NO CLOUDS BELOW 12,000 FEET WITH NO
SIGNIFICANT WEATHER AND/OR OBSTRUCTIONS TO VISIBILITY.

TXZ118-119-051200-
DALLAS/FORT WORTH METROPLEX

CITY           SKY/WX    TMP DP  RH WIND       PRES   REMARKS
DFW AIRPORT    CLEAR     61  51  70 NW5       30.05R
DALLAS LOVE    CLEAR     60  51  72 CALM      30.05R
FTW MEACHAM    CLEAR     59  49  69 CALM      30.06R
DAL-EXECUTIVE  PTCLDY    58  48  69 NW5       30.04R
FTW-ALLIANCE   CLEAR     51  48  89 CALM      30.06R
FTW-NAS-JRB    CLEAR     59  53  80 CALM      30.07R
FTW-SPINKS     CLEAR     51  50  95 CALM      30.08R
ARLINGTON      PTCLDY    55  51  86 W3        30.06R
GRAND PRAIRIE  PTCLDY    63  51  63 CALM      30.07R
MESQUITE       CLEAR     57  50  77 CALM      30.04S
LANCASTER      PTCLDY    55  48  76 CALM      30.05R
$$

TXZ091>094-102>105-117-120-121-131>134-051200-
NORTH CENTRAL TEXAS

CITY           SKY/WX    TMP DP  RH WIND       PRES   REMARKS
SHRMAN/DENISON CLEAR     48  43  84 CALM      30.06R
GAINESVILLE    CLEAR     50  45  81 CALM      30.08R
BOWIE          CLEAR     54  45  73 NE3       30.07R
BRIDGEPORT     CLEAR     51  51 100 CALM      30.09R
DECATUR        CLEAR     60  41  49 CALM      30.07R
DENTON         CLEAR     52  48  86 NW3       30.05R
MCKINNEY       CLEAR     52  51  97 CALM      30.05R
GREENVILLE     CLEAR     52  48  87 CALM      30.04R
TERRELL        CLEAR     54  50  86 CALM      30.04R
WAXAHACHIE     PTCLDY    56  50  81 CALM      30.06R
CLEBURNE       CLEAR     57  54  88 MISG      30.08R
GRANBURY         N/A     54  51  89 CALM      30.08R
$$

TXZ083>090-098>101-113>116-127>130-139>142-154-155-051200-
WESTERN NORTH TEXAS

CITY           SKY/WX    TMP DP  RH WIND       PRES   REMARKS
WICHITA FALLS  CLEAR     55  49  80 NW6       30.08R
WF-KICKAPOO    CLEAR     57  51  80 W6        30.09R
ABILENE        NOT AVBL
ABILENE-DYESS  CLEAR     50  47  88 NE3       30.07R
BRECKENRIDGE   CLEAR     53  51  91 SE5       30.08S
GRAHAM         CLEAR     49  49 100 CALM      30.07R
MINERAL WELLS  CLEAR     53  52  96 CALM      30.06R
STEPHENVILLE   CLEAR     56  49  79 NW3       30.10S
COMANCHE       CLEAR     54  49  83 N5        30.07S
COLEMAN        CLEAR     53  46  75 CALM      30.08S
$$

TXZ143>147-156>162-174-175-051200-
CENTRAL TEXAS

CITY           SKY/WX    TMP DP  RH WIND       PRES   REMARKS
WACO           CLEAR     54  51  90 CALM      30.05R
WACO-MCGREGOR  CLEAR     55  52  89 CALM      30.05R
HILLSBORO      CLEAR     53  49  87 CALM      30.06R
CORSICANA      PTCLDY    60  52  74 NW5       30.05R
MEXIA          CLEAR     58  51  77 NW3       30.04R
HEARNE         CLEAR     56  53  88 CALM      30.04R
CAMERON        CLEAR     56  54  91 CALM      30.04R
KILLEEN        CLEAR     56  50  79 N9        30.03S
KILLEEN-SKYLRK CLEAR     58  50  75 NW6       30.04S
FORT HOOD      CLEAR     58  49  73 NW3       30.02S
GATESVILLE     CLEAR     54  50  87 MISG      30.08R
HAMILTON       CLEAR     56  49  74 NW8       30.06F
LAMPASAS       CLEAR     55  51  85 CALM      30.04S
$$

TXZ095>097-106>112-122>126-135>138-148>153-164>167-051200-
EAST TEXAS

CITY           SKY/WX    TMP DP  RH WIND       PRES   REMARKS
PARIS          CLEAR     52  39  62 NW6       30.03R
SULPHUR SPRNGS CLEAR     57  52  82 NW3       30.05R
MOUNT PLEASANT CLEAR     52  49  91 CALM      30.03R
GILMER         CLEAR     51  49  95 CALM      30.02R
MINEOLA        CLEAR     54  52  94 CALM      30.03S
TYLER          CLEAR     57  49  74 N3        30.02R
LONGVIEW       CLEAR     53  49  86 NW5       30.00R
MARSHALL       CLEAR     50  48  92 CALM      30.02R
PALESTINE      PTCLDY    55  52  89 N3        30.03R
JACKSONVILLE   PTCLDY    61  50  67 CALM      30.03S
HENDERSON      CLEAR     54  51  90 CALM      30.02R
NACOGDOCHES    CLEAR     54  48  82 N3        30.00R
LUFKIN         CLEAR     53  51  93 CALM      30.00R
$$

SUPPLEMENTAL OBSERVATIONS (CENTRAL)

CITY           SKY/WX    TMP DP  RH WIND       PRES   REMARKS
CADDO GRASSLND   N/A     48  45  87 E1          N/A
PAT MAYSE LAKE   N/A     54  48  82 W2          N/A
GREENVILLE       N/A     54  48  82 W1          N/A
CEDAR HILL       N/A     54  52  94 CALM        N/A
MCGREGOR         N/A     57  50  77 CALM        N/A
TEMPLE           N/A     61  50  67 VRB1        N/A
$$

SUPPLEMENTAL OBSERVATIONS (WEST)

CITY           SKY/WX    TMP DP  RH WIND       PRES   REMARKS
MILLERS CREEK    N/A     52  48  87 E2          N/A
POSSUM KINGDOM   N/A     57  50  77 SE3         N/A
LBJ GRASSLAND    N/A     54  46  76 CALM        N/A
GRANBURY         N/A     52  46  82 NW2         N/A
HAMBY            N/A     50  45  81 SE2         N/A
$$

SUPPLEMENTAL OBSERVATIONS (EAST)

CITY           SKY/WX    TMP DP  RH WIND       PRES   REMARKS
LUFKIN           N/A     54  52  94 MISG        N/A
N SABINE NF      N/A     52  48  87 MISG        N/A
$$

SUPPLEMENTAL OBSERVATIONS ARE A COLLECTION OF AUTOMATED INSTRUMENTS
THAT ARE MAINTAINED BY A VARIETY OF FEDERAL AND STATE AGENCIES.
CERTAIN ELEMENTS...SUCH AS HUMIDITY VALUES AND SUSTAINED WIND
SPEEDS...MAY BE APPROXIMATED.





USA.gov is the U.S. government's official web portal to all federal, state and local government web resources and services.